Weather History for KCDA - November, 2013

Change the Weather History Date:

Monday, November 11, 2013

  Actual Average (K1V4) Record (K1V4)
Temperature  
Mean Temperature 34 °F 38 °F  
Max Temperature 38 °F 47 °F 71 °F (2002)
Min Temperature 30 °F 30 °F 8 °F (1956)
Degree Days  
Heating Degree Days 31 27  
Month to date heating degree days 277  
Since 1 July heating degree days 1064  
Cooling Degree Days 0 0  
Month to date cooling degree days 0  
Year to date cooling degree days 433  
Moisture  
Dew Point 26 °F    
Average Humidity 72    
Maximum Humidity 87    
Minimum Humidity 60    
Precipitation  
Precipitation 0.00 in 0.11 in 1.52 in (1977)
Month to date precipitation 1.29  
Year to date precipitation 34.31  
Sea Level Pressure  
Sea Level Pressure 29.92 in    
Wind  
Wind Speed 11 mph (SW)    
Max Wind Speed 22 mph    
Max Gust Speed 30 mph    
Visibility 9 miles    
Events Rain , Snow    
T = Trace of Precipitation, MM = Missing Value Source: NWS Daily Summary

Daily Weather History Graph

Daily Weather History Graph

Search for Another Location

Airport or City:

Trip Planner

Search our weather history database for the weather conditions in past years. The results will help you decide how hot, cold, wet, or windy it might be!

Date:

Astronomy

Nov. 11, 2013 Rise Set
Actual Time 6:39 AM EST 4:24 PM EST
Civil Twilight 6:08 AM EST 4:55 PM EST
Nautical Twilight 5:33 AM EST 5:30 PM EST
Astronomical Twilight 4:58 AM EST 6:04 PM EST
Moon 1:16 PM EST (11/11) 12:06 AM EST (11/11)
Length of Visible Light 10h 47m
Length of Day
9h 44m
Waxing Gibbous, 66% of the Moon is Illuminated
Nov 11
Waxing Gibbous
Nov 17
Full
Nov 25
Last Quarter
Dec 2
New
Dec 9
First Quarter

Hourly Weather History & Observations

Time (EST) Temp. Windchill Dew Point Humidity Pressure Visibility Wind Dir Wind Speed Gust Speed Precip Events Conditions
12:15 AM 34.5 °F 25.7 °F 30.6 °F 85% 29.81 in 10.0 mi West 12.7 mph 21.9 mph N/A   Mostly Cloudy
12:35 AM 34.7 °F 25.5 °F 30.2 °F 84% 29.81 in 10.0 mi West 13.8 mph 24.2 mph N/A   Overcast
12:55 AM 34.2 °F 24.4 °F 30.0 °F 85% 29.82 in 7.0 mi West 15.0 mph 21.9 mph N/A Snow Light Snow
1:15 AM 34.0 °F 23.4 °F 29.8 °F 85% 29.84 in 7.0 mi West 17.3 mph 25.3 mph N/A Snow Light Snow
1:35 AM 33.8 °F 24.3 °F 29.8 °F 85% 29.85 in 4.0 mi West 13.8 mph 23.0 mph N/A Snow Light Snow
1:55 AM 33.3 °F 22.5 °F 29.8 °F 87% 29.86 in 4.0 mi West 17.3 mph - N/A Snow Light Snow
2:15 AM 33.3 °F 24.1 °F 29.8 °F 87% 29.87 in 4.0 mi West 12.7 mph 20.7 mph N/A Snow Light Snow
2:35 AM 33.1 °F 20.9 °F 29.7 °F 87% 29.86 in 5.0 mi West 21.9 mph 29.9 mph N/A Snow Light Snow
2:55 AM 33.1 °F 21.5 °F 29.1 °F 85% 29.88 in 7.0 mi West 19.6 mph 27.6 mph N/A Snow Light Snow
3:15 AM 32.9 °F 21.6 °F 27.9 °F 82% 29.90 in 10.0 mi West 18.4 mph 27.6 mph N/A   Overcast
3:35 AM 32.7 °F 21.4 °F 27.9 °F 82% 29.92 in 10.0 mi West 18.4 mph 25.3 mph N/A   Overcast
3:55 AM 32.5 °F 22.3 °F 27.5 °F 82% 29.93 in 10.0 mi West 15.0 mph 27.6 mph N/A   Overcast
4:15 AM 32.0 °F 22.1 °F 27.7 °F 84% 29.95 in 10.0 mi West 13.8 mph 20.7 mph N/A   Overcast
4:35 AM 32.0 °F 22.1 °F 27.1 °F 82% 29.96 in 10.0 mi West 13.8 mph 18.4 mph N/A   Overcast
4:55 AM 32.0 °F 22.5 °F 27.0 °F 82% 29.97 in 10.0 mi West 12.7 mph 20.7 mph N/A   Overcast
5:15 AM 32.0 °F 24.8 °F 26.6 °F 80% 29.97 in 10.0 mi WNW 8.1 mph 18.4 mph N/A   Overcast
5:35 AM 32.0 °F 21.6 °F 26.6 °F 80% 29.98 in 10.0 mi West 15.0 mph 19.6 mph N/A   Overcast
5:55 AM 31.8 °F 25.4 °F 26.1 °F 79% 29.98 in 10.0 mi West 6.9 mph 16.1 mph N/A   Overcast
6:15 AM 31.8 °F 26.2 °F 26.2 °F 80% 30.00 in 10.0 mi West 5.8 mph - N/A   Overcast
6:35 AM 31.8 °F 24.6 °F 25.7 °F 78% 30.00 in 10.0 mi WNW 8.1 mph - N/A   Overcast
6:55 AM 31.6 °F 26.0 °F 25.9 °F 79% 30.01 in 10.0 mi West 5.8 mph - N/A   Overcast
7:15 AM 31.6 °F 23.1 °F 25.7 °F 79% 30.02 in 10.0 mi West 10.4 mph - N/A   Overcast
7:35 AM 31.5 °F 23.5 °F 25.7 °F 79% 30.03 in 10.0 mi West 9.2 mph - N/A   Overcast
7:55 AM 31.5 °F 23.5 °F 25.5 °F 79% 30.02 in 10.0 mi West 9.2 mph - N/A   Overcast
8:15 AM 31.6 °F 24.4 °F 25.3 °F 78% 30.04 in 10.0 mi West 8.1 mph - N/A   Overcast
8:35 AM 31.5 °F 22.3 °F 25.2 °F 78% 30.05 in 10.0 mi West 11.5 mph - N/A   Overcast
8:55 AM 31.1 °F 24.5 °F 25.0 °F 78% 30.05 in 10.0 mi West 6.9 mph - N/A   Overcast
9:15 AM 31.1 °F 24.5 °F 24.8 °F 77% 30.05 in 10.0 mi WSW 6.9 mph - N/A   Overcast
9:35 AM 30.9 °F 22.2 °F 24.6 °F 77% 30.05 in 10.0 mi West 10.4 mph - N/A   Overcast
9:55 AM 32.0 °F 24.2 °F 23.9 °F 72% 30.04 in 10.0 mi WNW 9.2 mph 16.1 mph N/A   Overcast
10:15 AM 31.8 °F 24.6 °F 24.3 °F 74% 30.04 in 10.0 mi West 8.1 mph - N/A   Overcast
10:35 AM 32.0 °F 24.8 °F 24.3 °F 73% 30.03 in 10.0 mi WSW 8.1 mph - N/A   Overcast
10:55 AM 32.0 °F 23.6 °F 24.1 °F 73% 30.02 in 10.0 mi SW 10.4 mph - N/A   Overcast
11:15 AM 32.9 °F 25.9 °F 24.8 °F 72% 30.01 in 10.0 mi SW 8.1 mph - N/A   Overcast
11:35 AM 33.3 °F 27.1 °F 25.2 °F 72% 30.01 in 10.0 mi WSW 6.9 mph - N/A   Overcast
11:55 AM 33.8 °F 29.6 °F 24.8 °F 70% 30.00 in 10.0 mi West 4.6 mph - N/A   Overcast
12:15 PM 36.9 °F 30.7 °F 25.5 °F 64% 29.98 in 10.0 mi South 8.1 mph - N/A   Scattered Clouds
12:35 PM 37.2 °F 33.6 °F 25.2 °F 62% 29.97 in 10.0 mi SSW 4.6 mph - N/A   Clear
12:55 PM 37.6 °F 31.0 °F 24.6 °F 60% 29.96 in 10.0 mi WSW 9.2 mph - N/A   Scattered Clouds
1:15 PM 36.9 °F 30.1 °F 24.6 °F 61% 29.96 in 10.0 mi SW 9.2 mph - N/A   Mostly Cloudy
1:35 PM 36.9 °F 32.2 °F 24.6 °F 61% 29.96 in 10.0 mi SW 5.8 mph - N/A   Mostly Cloudy
1:55 PM 37.6 °F 31.0 °F 24.8 °F 60% 29.94 in 10.0 mi SSW 9.2 mph - N/A   Mostly Cloudy
2:15 PM 37.4 °F 32.1 °F 24.8 °F 60% 29.94 in 10.0 mi WSW 6.9 mph - N/A   Clear
2:35 PM 37.4 °F 33.8 °F 25.3 °F 62% 29.94 in 10.0 mi SSW 4.6 mph - N/A   Scattered Clouds
2:55 PM 37.6 °F 34.0 °F 25.5 °F 62% 29.94 in 10.0 mi SW 4.6 mph - N/A   Overcast
3:15 PM 36.9 °F 32.2 °F 26.6 °F 66% 29.93 in 10.0 mi SW 5.8 mph - N/A   Overcast
3:35 PM 36.5 °F 31.0 °F 27.3 °F 69% 29.93 in 10.0 mi South 6.9 mph - N/A   Overcast
3:55 PM 36.5 °F 31.8 °F 27.3 °F 69% 29.92 in 10.0 mi South 5.8 mph - N/A Rain Light Rain
4:15 PM 36.0 °F 32.1 °F 27.5 °F 71% 29.91 in 10.0 mi South 4.6 mph - N/A Snow Light Snow
4:35 PM 35.8 °F - 26.8 °F 70% 29.90 in 10.0 mi Calm Calm - N/A   Mostly Cloudy
4:55 PM 35.8 °F 31.9 °F 26.2 °F 68% 29.88 in 10.0 mi South 4.6 mph - N/A   Mostly Cloudy
5:15 PM 36.0 °F - 25.7 °F 66% 29.89 in 10.0 mi Calm Calm - N/A   Mostly Cloudy
5:35 PM 36.0 °F 33.3 °F 25.7 °F 66% 29.88 in 10.0 mi South 3.5 mph - N/A   Overcast
5:55 PM 36.5 °F 32.7 °F 25.3 °F 64% 29.87 in 10.0 mi SSE 4.6 mph - N/A   Overcast
6:15 PM 36.5 °F 31.0 °F 25.3 °F 64% 29.86 in 10.0 mi South 6.9 mph - N/A   Overcast
6:35 PM 36.9 °F 31.4 °F 24.8 °F 62% 29.86 in 10.0 mi SSE 6.9 mph - N/A   Overcast
6:55 PM 36.9 °F 30.7 °F 24.8 °F 62% 29.86 in 10.0 mi SSE 8.1 mph - N/A   Mostly Cloudy
7:15 PM 37.4 °F 32.8 °F 25.0 °F 61% 29.84 in 10.0 mi South 5.8 mph - N/A   Overcast
7:35 PM 37.4 °F 30.3 °F 25.3 °F 62% 29.84 in 10.0 mi South 10.4 mph - N/A   Overcast
7:55 PM 37.6 °F 31.6 °F 25.5 °F 62% 29.82 in 10.0 mi South 8.1 mph - N/A   Overcast
8:15 PM 37.8 °F 32.5 °F 25.7 °F 62% 29.82 in 10.0 mi SSW 6.9 mph - N/A   Overcast
8:35 PM 37.6 °F 33.1 °F 26.1 °F 63% 29.82 in 10.0 mi South 5.8 mph - N/A   Overcast
8:55 PM 37.4 °F 32.1 °F 26.2 °F 64% 29.81 in 10.0 mi South 6.9 mph - N/A   Overcast
9:15 PM 37.8 °F 31.3 °F 26.2 °F 63% 29.81 in 10.0 mi South 9.2 mph - N/A   Overcast
9:35 PM 38.3 °F 31.4 °F 26.6 °F 63% 29.80 in 10.0 mi South 10.4 mph - N/A   Overcast
9:55 PM 38.7 °F 32.9 °F 27.0 °F 63% 29.80 in 10.0 mi South 8.1 mph - N/A   Overcast
10:15 PM 38.7 °F 33.6 °F 27.1 °F 63% 29.79 in 10.0 mi South 6.9 mph - N/A   Overcast
10:35 PM 38.5 °F 32.7 °F 27.3 °F 64% 29.79 in 10.0 mi SSE 8.1 mph - N/A   Overcast
10:55 PM 38.7 °F 35.2 °F 27.5 °F 64% 29.79 in 10.0 mi SSW 4.6 mph - N/A   Overcast
11:15 PM 38.7 °F 32.9 °F 27.9 °F 65% 29.79 in 10.0 mi SSE 8.1 mph - N/A   Overcast
11:35 PM 38.1 °F 34.6 °F 28.2 °F 68% 29.79 in 10.0 mi SSW 4.6 mph - N/A Rain Light Rain
11:55 PM 33.1 °F 21.9 °F 28.9 °F 85% 29.83 in 1.5 mi WNW 18.4 mph 27.6 mph N/A Rain Light Rain